Regional Weather Roundup
Issued by NWS

Home | Current Version | Previous Version | Text Only | Print | Product List | Glossary On
Versions: 1 2 3 4 5 6 7 8 9 10 11 12 13 14 15 16 17 18 19 20 21 22 23 24 25 26 27 28 29 30 31 32 33 34 35 36 37 38 39 40 41 42 43 44 45 46 47 48 49 50
000
ASUS43 KIND 121259
RWRIN

WEATHER ROUNDUP FOR INDIANA
NATIONAL WEATHER SERVICE INDIANAPOLIS IN
800 AM EST FRI FEB 12 2016

NOTE: "FAIR" INDICATES FEW OR NO CLOUDS BELOW 12,000 FEET WITH NO
SIGNIFICANT WEATHER AND/OR OBSTRUCTIONS TO VISIBILITY.

* - STATION DOES NOT REPORT WEATHER SUCH AS PRECIPITATION OR FOG.

+ - STATION NOT QUALITY CONTROLLED BY THE NATIONAL WEATHER SERVICE.
    USE DATA WITH CAUTION...ESPECIALLY DEWPOINT AND RELATIVE
    HUMIDITY OBSERVATIONS.

INZ001>003-010>013-019-020-121400-
NORTHWEST INDIANA

CITY           SKY/WX    TMP DP  RH WIND       PRES   REMARKS
MONTICELLO +   CLOUDY    19   7  59 SW7       30.17S WCI  10

$$

LMZ046-743>745-121400-
SOUTHERN LAKE MICHIGAN

STATION/POSITION TIME  TEMP    WIND        PRES    WAVE
                       AIR SEA DIR/SP/G            HT
                 (UTC) (F)     (DEG/KT/KT) (MB)    (FT)
BURNS HARBOR     1200   20     220/ 10/ 13 1021.7F
MICHIGAN CITY    1200   19     180/ 12/ 14   N/A

$$

INZ004-005-014>016-021>024-121400-
NORTH CENTRAL INDIANA

CITY           SKY/WX    TMP DP  RH WIND       PRES   REMARKS
ELKHART        CLOUDY    18   9  68 SW9       30.12F WCI   6
GOSHEN         CLOUDY    18   9  68 SW10      30.12F WCI   6
SOUTH BEND     CLOUDY    16   9  74 SW10      30.12F WCI   4

$$

INZ006>009-017-018-025>027-121400-
NORTHEAST INDIANA

CITY           SKY/WX    TMP DP  RH WIND       PRES   REMARKS
ANGOLA *+      CLOUDY    16   9  73 SW8       30.08F WCI   5
FORT WAYNE     CLOUDY    18   9  68 SW7       30.15F WCI   9

$$

INZ028-029-035-036-043>045-051>053-121400-
WEST CENTRAL INDIANA

CITY           SKY/WX    TMP DP  RH WIND       PRES   REMARKS
GREENCASTLE +  CLOUDY    21   9  58 CALM      30.19R
LAFAYETTE      CLOUDY    19  12  74 W6        30.19R WCI  11
TERRE HAUTE    CLOUDY    22  13  68 W3        30.22R

$$

INZ030>032-037>040-046>048-054>057-064-065-121400-
CENTRAL INDIANA

CITY           SKY/WX    TMP DP  RH WIND       PRES   REMARKS
COLUMBUS       CLOUDY    21  12  68 S6        30.19F WCI  14
FRANKFORT +    PTCLDY    20   9  63 SW5       30.18S WCI  14
GREENWOOD *+   MOCLDY    21  14  73 CALM      30.18S
INDIANAPOLIS   CLOUDY    20  10  65 SW3       30.17R
-EAGLE CREEK   CLOUDY    20   8  60 SW3       30.17S
KOKOMO *+      CLOUDY    19   9  63 SW6       30.16S WCI  11
MT COMFORT *+  CLOUDY    19  10  68 S3        30.17S
SHELBYVILLE    CLOUDY    20  11  68 SW3       30.17S

$$

INZ033-034-041-042-049-050-058-059-121400-
EAST CENTRAL INDIANA

CITY           SKY/WX    TMP DP  RH WIND       PRES   REMARKS
MUNCIE         CLOUDY    19   7  59 SW5       30.15F WCI  12

$$

INZ060-061-067>069-081>083-085>088-121400-
SOUTHWEST INDIANA

CITY           SKY/WX    TMP DP  RH WIND       PRES   REMARKS
EVANSVILLE     LGT SNOW  26  21  81 W3        30.24R
HUNTINGBURG *+ CLOUDY    27  16  63 NW5       30.22R WCI  21

$$

INZ062-063-066-070>080-084-089>092-121400-
SOUTH CENTRAL AND SOUTHEAST INDIANA

CITY           SKY/WX    TMP DP  RH WIND       PRES   REMARKS
BLOOMINGTON    CLOUDY    21  13  71 SW7       30.18R WCI  12
MADISON *+     CLOUDY    23  12  63 CALM      30.20S
SEYMOUR +      CLOUDY    25  12  58 CALM      30.19S

$$





USA.gov is the U.S. government's official web portal to all federal, state and local government web resources and services.